Flag for Hungary Weather past 2 weeks in Budapest, Hungary

Now
70 °F

Sunny.


Feels Like: 70 °F
Forecast: 49 / 77 °F
Wind: 8 mph from South

Location: Ferenc Liszt International Airport

Current Time: May 29, 2015 at 7:17:07 PM

Latest Report: May 29, 2015 at 7:00 PM


Visibility: 10 mi

Pressure: 29.92 "Hg

Humidity: 46%

Dew point: 48 °F

Location of BudapestLocation

Historic Weather in Budapest — Graph

°F

Budapest temperature yesterday

Maximum temperature yesterday: 63 °F (at 4:00 PM)
Minimum temperature yesterday: 45 °F (at 11:30 PM)
Average temperature yesterday: 55 °F

Past Weeks' High & Low Weather Summary

 TemperatureHumidityPressure
High86 °F (May 19, 3:30 PM)100% (May 15, 7:00 AM)30.15 "Hg (May 15, 7:00 AM)
Low39 °F (May 29, 3:00 AM)32% (May 19, 11:30 AM)29.71 "Hg (May 25, 11:30 PM)
Average60 °F74%29.94 "Hg
* Reported May 14 6:00 PM — May 29 6:00 PM, Budapest, Weather by CustomWeather, © 2015

Note: Actual official high and low records may vary slightly from our data, if they occured in-between our weather recording intervals... More about our weather records

Advertising

Budapest weather history for previous 24 hours

 ConditionsComfort  
Time TempWeatherWind HumidityBarometerVisibility
6:00 PM
Fri, May 29
70 °FPassing clouds.9 mph46%29.92 "HgN/A
5:30 PM72 °FSunny.12 mph44%29.95 "Hg10 mi
5:00 PM72 °FPassing clouds.12 mph44%29.95 "HgN/A
4:30 PM72 °FSunny.8 mph44%29.95 "Hg10 mi
4:00 PM70 °FPassing clouds.6 mph43%29.95 "HgN/A
3:30 PM72 °FPassing clouds.7 mph44%29.95 "HgN/A
3:00 PM72 °FSunny.3 mph41%29.98 "Hg10 mi
2:30 PM70 °FSunny.6 mph43%29.98 "Hg10 mi
2:00 PM70 °FSunny.5 mph43%29.98 "Hg10 mi
1:30 PM70 °FSunny.3 mph40%29.98 "Hg10 mi
1:00 PM68 °FSunny.7 mph43%30.01 "Hg10 mi
12:30 PM68 °FSunny.3 mph46%30.01 "Hg10 mi
12:00 PM66 °FPassing clouds.6 mph46%30.01 "HgN/A
11:30 AM66 °FPassing clouds.7 mph52%30.01 "HgN/A
11:00 AM63 °FSunny.3 mph52%30.01 "Hg10 mi
10:30 AM63 °FPassing clouds.6 mph59%30.04 "HgN/A
10:00 AM61 °FSunny.5 mph59%30.04 "Hg10 mi
9:30 AM61 °FSunny.3 mph55%30.04 "Hg10 mi
9:00 AM61 °FSunny.3 mph63%30.04 "Hg10 mi
8:30 AM57 °FSunny.2 mph67%30.04 "Hg10 mi
8:00 AM55 °FSunny.1 mph72%30.04 "Hg10 mi
7:30 AM54 °FSunny.1 mph88%30.04 "Hg10 mi
7:00 AM50 °FSunny.1 mph100%30.04 "Hg10 mi
6:30 AM46 °FSunny.2 mph93%30.04 "Hg10 mi
6:00 AM41 °FFog.2 mph100%30.01 "HgN/A
5:30 AM39 °FFog.No wind93%30.01 "HgN/A
5:00 AM39 °FFog.1 mph93%30.01 "HgN/A
4:30 AM39 °FFog.1 mph100%30.01 "HgN/A
4:00 AM39 °FClear.No wind93%30.01 "Hg10 mi
3:30 AM41 °FClear.No wind93%30.01 "Hg10 mi
3:00 AM39 °FClear.1 mph100%30.04 "Hg10 mi
2:30 AM41 °FClear.1 mph93%30.04 "Hg10 mi
2:00 AM41 °FClear.1 mph93%30.04 "Hg10 mi
1:30 AM41 °FClear.2 mph93%30.04 "Hg10 mi
12:00 AM43 °FClear.No wind87%30.04 "Hg10 mi
11:30 PM
Thu, May 28
45 °FClear.2 mph87%30.04 "Hg10 mi
11:00 PM46 °FClear.1 mph82%30.04 "Hg10 mi
10:30 PM46 °FClear.3 mph87%30.04 "Hg10 mi
10:00 PM48 °FClear.1 mph82%30.04 "Hg10 mi
9:30 PM52 °FClear.7 mph67%30.04 "Hg10 mi
9:00 PM52 °FSunny.6 mph67%30.01 "Hg10 mi
8:30 PM55 °FSunny.6 mph59%30.01 "Hg10 mi
8:00 PM57 °FSunny.5 mph55%30.01 "Hg10 mi
7:30 PM59 °FSunny.7 mph48%30.01 "Hg10 mi
7:00 PM61 °FPassing clouds.8 mph45%30.01 "HgN/A
Weather by CustomWeather, © 2015

See weather overviewHow to use our weather pages